QZS-1R (MICHIBIKI-1R)

Last updated on Sun Apr 12 2026 00:02:56 GMT+0000 (Coordinated Universal Time)

1 49336U 21096A 26101.26409596 -.00000195 00000+0 00000+0 0 9998 2 49336 37.3246 80.5693 0750450 270.5015 79.0898 1.00278590 16330
UTC large
Height (km)
Speed (km/s)
/
Latitude / Longitude
Inclination (degrees)
Orbital Period (minutes)
Azimuth
Elevation
Range (km)
Doppler Factor

Next 0 passes for location: London (51.5072 / 0.1276)

Sorry there are no passes over London.
QZS-1R (MICHIBIKI-1R)